Theta_e
342 343 345 343 343 341 343 341 341 340 343 340 344 339 340 339 340 338 339 340 339 339 336 336 338 335 335 333 334 333 335 337 340 339 342 343 341 341 344 343 343 343 343 339 338 336 336 336 335 335 333 334 337 336 336 334 333 332 331 332 331 330 330 330 329 329 329 328 328 327 327 327 327 327 327 327 326 326 326 327 327 326 326 326 326
342 344 343 342 342 340 339 338 337 339 342 339 343 340 339 340 341 338 341 340 337 338 336 337 335 335 332 333 331 334 336 335 335 335 338 342 342 342 343 343 343 343 344 340 338 336 336 336 336 335 333 333 336 337 337 336 334 333 332 332 332 330 329 330 329 329 329 329 328 327 328 328 327 327 327 326 326 326 326 326 326 326 325 325 325
342 341 342 341 340 341 340 341 342 339 342 344 342 340 343 347 342 337 341 343 338 341 340 337 339 332 332 331 332 335 335 335 334 334 336 340 343 342 341 343 342 342 342 343 341 337 337 337 336 335 334 334 333 334 337 337 336 335 333 333 331 331 330 329 330 329 329 328 328 328 327 327 327 327 326 326 326 326 326 325 325 325 325 325 325
340 340 338 339 338 340 339 340 341 340 341 340 338 337 341 336 337 337 338 340 341 340 343 337 335 334 331 332 332 332 333 334 334 334 334 341 341 343 341 339 342 341 342 341 342 339 338 337 337 335 336 334 335 333 337 335 337 336 335 333 332 331 330 330 329 329 329 328 328 328 327 327 327 327 326 325 325 325 325 325 325 325 324 324 324
339 336 337 341 340 339 341 340 337 340 340 338 337 338 335 339 336 338 337 337 339 339 337 337 334 335 334 334 334 331 332 333 332 336 334 339 338 339 342 340 339 340 340 341 341 341 340 339 337 335 336 335 333 334 333 332 337 337 336 334 333 332 332 330 330 330 329 329 328 328 327 327 327 326 326 326 324 325 325 324 324 324 324 324 324
335 336 338 337 340 340 339 339 338 339 339 340 339 337 337 337 337 336 335 337 336 336 336 334 337 338 338 335 336 337 333 333 334 333 334 335 343 340 342 341 340 338 340 342 341 341 341 339 338 337 333 334 333 333 334 333 332 338 338 336 334 334 333 331 331 331 329 329 329 328 328 327 326 327 326 326 325 324 324 324 324 324 324 324 323
338 340 338 340 342 341 338 338 338 337 337 338 338 337 335 334 334 333 335 337 336 335 334 335 336 335 336 338 335 333 335 333 334 336 334 335 345 340 341 343 343 340 339 339 342 340 340 339 337 337 336 335 333 333 334 333 333 334 337 337 336 335 334 333 332 331 330 329 329 328 328 328 327 327 326 325 325 324 324 324 324 323 323 323 323
341 342 343 341 338 338 340 338 338 340 340 340 340 337 335 334 332 335 335 335 335 333 336 332 332 335 336 338 338 336 336 333 334 332 332 337 335 339 339 339 341 344 342 342 340 339 338 338 341 342 337 335 334 333 333 332 334 332 334 337 337 336 335 334 333 332 331 330 330 329 329 328 328 328 327 326 325 324 324 324 324 323 323 323 322
342 342 342 342 339 337 339 341 340 337 340 341 340 336 337 334 335 334 336 335 335 333 332 333 332 336 337 338 338 337 337 337 336 337 335 336 336 338 339 337 339 339 341 338 338 340 338 339 341 340 340 338 336 335 334 333 333 335 333 332 338 337 336 335 334 333 333 332 331 330 330 329 327 328 328 327 325 325 324 324 323 323 323 323 322
340 341 341 341 340 340 342 343 341 339 339 336 337 338 336 336 334 335 335 335 334 335 332 333 330 332 335 337 338 339 338 339 338 337 335 334 336 335 339 339 338 338 338 339 337 337 339 338 339 338 339 339 339 337 336 335 334 334 334 333 334 338 336 337 336 334 334 333 332 331 330 329 329 327 328 327 326 326 325 324 324 323 323 323 323
341 341 341 340 340 341 341 342 340 337 339 336 337 336 333 335 336 336 336 335 335 335 333 331 331 330 333 333 334 336 339 338 337 337 340 338 337 335 338 340 337 338 336 337 337 339 338 338 337 338 339 338 339 339 337 336 336 336 335 334 333 338 338 338 338 335 335 334 333 332 330 330 329 328 328 328 327 326 326 325 324 324 323 323 323
341 342 341 339 340 340 341 341 339 338 337 336 334 335 335 336 335 336 335 335 337 336 337 335 334 332 333 334 334 334 335 336 337 336 338 339 339 338 338 338 339 337 337 337 339 338 338 338 341 340 337 337 336 337 339 337 337 337 336 337 336 335 336 337 337 337 336 336 334 333 332 331 330 329 328 328 328 327 326 325 325 325 324 323 323
341 341 339 338 337 338 340 340 339 338 337 335 335 335 337 338 335 337 336 333 334 336 336 337 333 332 332 333 333 336 334 334 333 336 335 335 337 337 338 339 338 336 336 338 338 336 338 338 337 338 337 338 336 334 333 333 333 336 336 336 336 336 337 337 337 337 338 337 335 334 333 332 331 330 329 328 328 328 327 326 325 325 325 324 323
335 336 335 334 334 335 336 338 336 336 336 338 338 336 337 336 335 333 335 333 332 335 336 335 331 327 326 327 333 331 332 331 331 332 334 336 337 335 335 333 334 339 338 336 337 337 337 338 339 338 338 339 338 338 336 335 334 335 336 335 336 336 337 337 337 336 337 337 336 336 335 333 332 331 330 330 329 328 328 327 326 325 325 325 324
334 333 333 332 333 333 333 332 333 333 332 332 334 336 337 337 336 331 331 334 333 335 334 333 330 330 328 325 324 324 327 329 329 331 333 335 335 334 333 332 333 335 336 335 333 335 334 336 336 336 337 337 338 339 340 336 336 334 333 332 333 335 337 337 336 336 336 336 336 337 336 335 333 332 331 331 330 329 329 328 327 326 326 325 325
330 328 331 333 333 332 332 332 333 333 332 330 330 330 336 336 336 334 332 329 328 331 335 335 331 328 319 319 321 321 318 319 327 330 333 331 332 333 334 334 332 333 332 333 332 333 333 337 334 335 335 336 335 337 336 336 334 331 330 331 331 335 337 337 337 336 336 336 336 336 337 336 335 334 333 332 331 330 330 329 328 327 326 326 325
331 331 331 332 333 333 332 333 332 332 332 329 329 330 329 329 332 332 333 330 327 331 333 335 334 336 327 323 319 318 319 322 323 325 330 331 331 331 330 331 332 333 333 334 333 336 332 334 334 334 333 335 333 335 335 334 335 337 333 332 331 330 332 334 337 338 336 336 336 337 336 337 337 336 334 333 333 332 330 330 329 328 327 327 326
330 330 330 331 332 332 333 331 331 330 331 329 330 331 332 331 331 330 332 333 331 328 330 333 334 334 332 331 326 319 318 322 322 316 326 331 329 329 330 333 333 333 333 332 332 336 330 334 331 331 330 333 333 334 334 334 336 334 333 329 327 325 322 324 331 334 336 336 336 336 336 335 334 335 335 334 334 333 332 331 331 330 328 328 328
331 330 331 331 332 332 331 331 330 330 330 330 330 330 330 331 332 333 331 332 332 328 328 330 331 331 332 333 332 333 330 325 320 322 318 322 329 328 328 330 328 327 326 326 328 328 329 330 331 334 333 332 333 333 333 333 331 328 326 324 323 322 318 317 319 326 331 333 334 335 336 335 334 335 335 335 334 334 333 332 332 331 330 329 329
330 329 330 330 331 330 330 330 327 328 327 327 329 329 330 331 332 332 331 333 333 331 328 328 325 326 332 331 332 333 331 328 327 324 319 316 320 326 326 326 325 324 324 324 324 325 326 327 328 328 328 331 332 333 333 331 329 325 321 319 318 318 317 317 316 315 322 331 333 334 334 334 332 333 333 333 333 333 333 334 333 333 332 331 330
328 328 327 326 327 327 327 325 325 324 325 327 329 328 328 329 329 329 329 329 330 331 331 329 328 326 328 329 329 327 328 328 328 328 323 319 318 319 320 323 323 323 323 324 323 325 324 325 326 327 328 328 328 328 329 329 325 321 318 317 316 314 314 313 311 314 315 328 334 335 335 334 333 334 332 331 331 332 333 333 333 332 332 332 332
327 325 326 325 325 325 325 327 329 327 327 327 326 326 326 327 328 330 330 329 329 329 328 327 327 327 325 325 324 323 323 324 325 325 324 324 317 317 319 319 316 318 322 321 322 323 323 324 325 326 325 326 326 324 323 320 320 318 315 315 315 315 313 311 308 309 313 322 330 333 334 334 334 333 333 331 331 331 332 333 331 332 334 332 331
323 326 325 325 326 325 326 327 329 327 324 323 324 323 325 327 327 328 328 327 326 327 326 326 325 323 322 321 319 320 320 319 321 323 321 320 321 318 320 319 316 315 318 320 320 320 321 323 322 322 323 324 323 322 320 318 315 313 312 312 312 313 313 311 309 308 311 318 324 329 332 333 333 333 333 332 331 332 330 331 332 332 331 331 333
323 324 324 324 325 325 326 327 325 326 325 325 324 324 325 325 325 326 326 326 327 325 325 323 324 320 321 319 318 318 318 318 320 322 323 323 320 318 316 316 315 315 316 319 319 318 318 319 320 321 321 321 321 321 319 317 314 312 312 310 309 309 310 311 310 309 307 312 316 321 325 327 327 328 328 327 327 327 328 328 327 327 328 330 332
321 322 323 325 324 324 324 324 325 325 324 322 323 322 323 323 323 323 323 322 321 322 320 322 322 319 318 318 316 315 316 319 323 321 324 325 320 316 316 318 313 313 314 315 313 315 317 318 319 319 320 320 320 319 317 317 316 316 312 310 308 308 307 308 308 307 306 304 307 311 314 319 321 323 324 323 321 320 319 316 313 311 313 319 322
321 322 323 323 323 324 324 323 323 324 325 326 325 323 322 319 322 322 322 323 323 323 321 322 321 321 320 317 317 316 316 318 321 322 321 320 317 316 316 316 315 311 312 312 313 311 312 314 317 318 318 318 319 318 319 318 318 316 314 311 309 307 306 305 306 306 305 304 303 304 307 310 312 313 314 316 316 314 313 312 311 310 310 312 315
322 324 323 323 323 323 323 323 323 324 323 324 323 322 321 318 319 320 320 321 320 320 321 322 320 319 321 318 317 316 316 314 316 320 321 321 319 318 316 312 312 313 311 309 309 309 310 311 313 314 315 316 316 317 316 315 316 313 313 315 309 305 305 305 305 305 305 305 303 303 304 306 307 309 309 310 310 312 313 312 311 309 309 310 312
324 324 324 324 323 322 322 323 323 324 323 322 322 321 322 320 319 320 319 319 321 320 320 321 320 321 320 318 317 315 317 317 317 317 320 322 321 320 318 315 310 306 310 309 309 308 311 309 311 313 313 314 314 315 316 314 315 314 320 318 315 310 305 304 304 303 304 304 304 303 304 305 305 307 308 309 310 310 310 310 310 309 309 308 309
324 325 324 324 325 324 323 323 324 324 323 322 322 322 322 321 320 319 319 319 320 319 320 320 320 320 319 319 316 316 316 318 318 319 320 322 322 321 318 316 315 310 308 307 308 308 310 311 308 310 313 314 315 314 312 311 312 315 317 316 314 312 306 304 303 304 303 300 302 303 303 304 304 305 307 307 308 308 308 309 309 309 309 308 307
324 325 326 325 324 324 324 324 325 324 324 323 322 322 323 321 320 319 320 321 319 319 319 318 319 320 319 318 318 316 318 318 317 319 319 320 319 319 317 317 317 313 311 308 307 311 311 312 311 309 311 312 313 315 312 309 309 312 314 315 315 311 304 304 303 304 302 301 300 302 304 304 303 304 305 306 306 306 306 307 307 307 308 307 305
323 325 325 324 324 323 324 324 325 324 324 324 324 323 322 321 322 321 322 321 320 319 320 320 319 320 319 318 317 316 318 318 318 318 320 318 317 316 316 318 318 318 314 311 308 311 314 310 311 313 312 313 313 315 314 313 310 312 316 315 312 308 306 305 303 303 303 302 301 301 304 304 303 303 303 303 304 304 304 305 306 306 306 306 304
324 324 323 323 323 323 323 322 323 324 323 324 324 323 324 323 323 321 322 321 319 318 319 320 317 319 319 317 317 317 318 316 316 317 316 317 318 315 317 317 316 318 317 314 311 308 314 313 313 313 315 316 315 314 315 313 309 309 316 315 317 308 310 310 304 303 302 302 302 303 302 302 302 302 302 301 301 302 303 303 304 304 304 304 303
324 323 322 322 321 322 322 322 323 324 324 325 326 327 325 324 324 323 323 322 320 319 318 318 318 319 318 316 316 316 318 317 316 315 314 315 316 317 317 315 314 316 315 314 311 311 314 317 316 314 316 316 313 314 314 315 315 315 312 316 316 316 314 313 308 303 302 302 301 300 300 301 301 301 299 297 300 300 300 301 302 302 302 302 301
324 322 321 321 322 322 321 321 322 323 324 325 325 326 325 325 325 324 324 323 322 321 321 319 319 319 319 318 317 318 318 317 317 314 313 313 313 314 315 317 316 318 320 317 314 313 312 315 314 316 316 316 313 314 315 315 315 315 313 314 314 314 312 314 313 307 302 302 301 299 300 301 300 300 299 299 299 299 300 301 301 301 301 300 300
323 322 322 322 322 322 322 323 322 323 323 324 326 326 325 325 324 325 325 324 323 323 322 321 319 319 320 320 319 319 320 319 318 318 315 315 314 314 316 318 317 318 318 318 316 313 313 314 317 315 316 317 315 313 314 315 315 315 313 314 313 313 313 314 313 310 301 302 301 301 301 300 302 300 300 300 299 299 299 299 300 300 300 299 300
321 323 323 322 322 323 323 322 322 323 325 326 326 326 326 326 325 325 325 325 325 324 323 322 321 321 321 320 321 321 320 319 319 318 317 317 316 315 316 318 318 318 320 318 318 317 315 314 315 315 316 316 316 315 315 316 315 315 314 314 315 314 314 314 314 313 303 302 301 303 303 303 302 302 301 300 301 300 300 300 300 300 299 300 300
321 321 322 322 323 323 324 322 324 324 325 325 326 326 326 327 327 326 326 325 326 325 326 324 325 323 321 321 321 321 321 319 320 318 318 316 316 316 316 318 318 319 320 319 320 319 318 315 315 317 317 316 315 315 315 312 313 314 315 315 313 313 314 314 314 313 306 300 303 303 303 302 302 302 301 301 301 300 299 300 300 300 300 300 301
322 322 322 322 322 322 323 323 324 324 324 325 325 325 325 327 327 328 327 326 325 325 325 326 324 324 323 322 323 322 320 320 320 320 321 317 316 317 317 317 317 318 318 320 319 319 318 317 317 315 316 314 314 315 316 313 313 312 312 313 314 314 313 312 312 311 312 311 312 309 304 302 302 300 302 302 301 300 299 299 300 300 300 300 300
322 322 323 322 323 323 324 324 323 324 324 325 325 325 325 325 326 326 327 326 326 327 326 326 326 326 325 325 325 324 323 322 321 320 320 320 318 318 317 317 316 318 318 317 317 317 317 316 316 315 314 315 315 312 314 315 313 312 311 311 310 312 313 311 309 309 310 311 309 305 305 305 304 305 303 301 301 301 301 300 299 299 299 299 298
322 322 323 322 325 326 326 322 323 325 324 325 325 325 325 326 325 326 327 327 327 326 327 326 326 325 326 326 326 325 324 324 323 322 324 321 319 318 318 318 317 316 316 317 316 314 315 314 313 313 313 313 314 315 314 314 313 312 312 310 308 308 309 310 309 308 308 309 310 310 307 306 305 303 300 300 301 300 300 299 300 301 300 299 298
323 323 325 326 325 324 324 324 324 325 326 326 325 324 328 326 326 326 327 324 324 324 324 325 325 325 326 326 326 326 328 320 314 314 313 314 321 318 319 318 316 316 315 314 314 314 313 312 312 314 312 312 312 312 311 311 309 309 311 311 308 308 308 307 308 309 307 308 309 308 307 308 306 306 307 308 310 304 302 301 303 303 301 297 297
326 327 324 323 324 325 323 325 327 328 328 324 309 301 303 319 322 319 320 325 324 323 325 323 325 324 325 326 326 320 315 314 311 305 302 302 304 314 321 320 317 316 316 317 314 314 312 311 311 312 311 311 311 312 311 311 312 312 309 308 306 306 307 306 307 308 307 307 307 305 306 307 305 305 306 306 308 308 309 308 307 305 300 297 298
326 326 324 322 319 322 324 325 325 326 322 313 296 295 297 298 319 325 323 322 323 324 324 324 325 323 322 324 325 322 320 316 317 302 302 300 297 296 296 299 305 322 317 314 313 314 312 311 311 310 309 309 310 311 311 311 311 309 306 306 305 305 304 302 300 304 308 308 305 304 304 306 306 304 305 305 306 308 308 309 297 299 299 298 297
326 326 326 325 324 325 322 322 323 323 316 297 295 296 295 295 299 320 326 324 323 322 323 322 321 321 321 323 324 325 325 325 323 317 305 295 293 293 294 294 293 291 295 312 314 312 312 311 310 309 309 309 309 310 309 309 307 306 306 305 305 304 303 301 300 299 304 307 304 302 301 306 307 305 304 305 307 308 307 304 298 300 298 298 298
325 325 326 326 323 325 325 323 320 322 314 293 295 295 296 294 294 304 324 321 321 320 321 320 319 319 319 319 321 323 321 317 318 321 315 307 295 293 294 294 294 294 292 291 295 310 311 309 308 308 309 309 308 308 308 306 306 304 304 303 304 303 302 300 300 300 303 306 303 301 301 304 305 304 304 306 306 307 306 303 300 299 298 298 298
324 324 325 326 324 318 319 320 321 321 316 294 294 294 295 293 293 297 324 320 320 319 319 319 319 319 319 319 317 320 321 319 320 319 318 313 308 307 308 309 307 301 294 293 294 295 302 309 309 308 310 310 307 307 307 307 305 303 303 301 303 301 301 300 302 302 304 306 303 302 300 302 305 303 301 303 305 306 306 303 297 299 297 298 297
322 321 321 319 321 321 320 321 321 321 314 290 292 291 292 292 293 295 322 320 319 319 318 318 318 319 319 320 318 317 318 318 317 318 317 314 313 312 312 310 309 308 309 309 310 310 310 309 309 308 308 309 308 307 307 306 304 303 302 301 301 301 301 303 303 304 305 307 306 304 299 301 304 301 302 303 304 304 304 302 299 298 298 298 297
320 319 318 318 317 317 317 317 317 318 310 289 292 292 292 292 292 316 319 318 317 317 317 317 318 319 319 319 318 317 318 316 300 296 303 318 314 313 311 311 311 310 304 295 291 294 302 306 307 306 305 300 295 301 300 298 299 300 300 300 301 300 299 299 299 302 300 304 306 303 300 300 303 301 301 303 303 302 303 304 300 300 299 298 297
316 316 316 316 316 316 316 315 314 316 314 297 292 292 292 291 296 320 317 316 316 316 316 316 315 314 312 313 317 316 315 311 295 295 294 296 312 312 311 310 310 308 305 301 294 291 291 291 289 289 289 289 289 290 290 290 295 296 297 296 297 300 298 296 297 298 299 302 303 303 300 298 301 301 300 301 301 300 300 301 304 300 298 299 297
314 315 315 315 315 315 315 315 316 315 317 301 293 293 291 290 295 318 316 316 316 315 314 314 312 312 307 299 309 314 312 308 291 291 289 302 312 311 310 309 308 308 306 305 303 301 290 291 290 290 290 290 291 291 291 291 290 293 298 295 298 298 297 298 296 298 299 300 301 304 300 299 301 301 299 299 299 300 301 301 301 301 300 298 297
315 314 313 313 314 314 315 316 311 315 316 305 292 292 293 292 303 319 316 315 314 314 312 311 312 311 308 301 295 299 303 297 289 291 290 300 311 310 309 308 306 306 307 307 306 306 304 303 302 299 298 295 296 298 298 291 291 294 298 298 298 298 297 297 297 297 295 298 300 301 297 297 298 298 297 295 294 297 300 300 300 301 301 301 302
Wind_Speed
5 5 5 6 3 4 4 4 4 5 3 7 5 4 9 5 4 4 4 5 2 3 4 4 4 5 4 5 5 7 6 5 4 5 8 5 7 10 10 8 7 4 3 9 8 6 7 7 6 6 6 6 8 7 7 7 6 7 7 7 7 7 7 7 7 7 6 7 8 8 8 7 7 8 8 8 7 7 8 8 8 8 9 10 9
3 3 4 5 3 1 5 6 9 6 4 7 7 7 4 4 3 2 7 9 7 7 6 5 6 5 5 6 6 6 6 5 5 6 8 5 5 10 11 8 6 4 2 7 8 7 7 8 7 7 6 7 8 8 7 7 6 6 6 6 6 6 6 7 6 7 7 7 6 6 6 7 7 7 6 6 7 8 8 9 8 8 8 8 8
4 3 1 3 2 3 2 3 1 5 4 3 5 6 3 4 6 8 3 3 2 3 4 8 10 5 3 4 6 5 5 5 6 6 8 8 8 8 9 10 7 4 3 2 7 8 8 8 7 8 6 7 4 6 8 7 7 6 6 6 6 6 5 6 6 6 6 6 6 5 5 6 7 7 6 6 7 7 7 7 7 7 7 7 7
3 4 5 5 5 3 3 3 2 3 2 3 7 10 7 9 10 3 3 4 3 3 4 1 11 3 4 4 4 3 4 4 5 5 5 10 9 7 8 8 8 7 4 3 5 7 8 10 8 7 9 5 7 6 7 6 7 6 6 6 6 5 5 5 5 6 5 5 5 5 5 5 6 6 7 6 5 5 5 6 6 6 6 6 6
4 2 4 4 4 3 2 1 5 2 3 3 5 2 5 3 2 2 3 2 3 5 5 5 7 8 3 3 3 3 0 6 5 2 5 11 7 9 8 9 9 8 5 4 5 3 3 2 9 5 9 8 6 6 6 4 7 7 7 7 6 6 5 5 5 5 4 4 5 5 4 5 4 5 5 6 5 4 5 5 6 5 5 6 6
2 5 5 5 5 2 1 2 3 2 2 2 2 1 2 2 1 3 4 3 2 3 4 5 11 6 5 1 1 2 1 5 3 3 2 4 8 4 5 6 8 8 8 7 5 4 2 1 6 6 3 5 6 5 6 5 5 9 8 8 8 7 6 5 5 5 4 4 5 4 4 5 4 5 4 5 5 4 4 4 4 5 4 5 6
7 5 5 6 1 1 1 2 4 2 1 2 1 2 2 1 1 2 2 2 2 4 4 6 6 5 9 4 2 2 2 1 1 2 2 4 7 4 2 1 4 6 7 7 7 5 4 1 3 5 6 3 3 5 6 6 7 6 7 9 9 8 7 6 5 4 4 4 4 4 4 5 5 5 5 4 5 5 4 3 4 4 5 4 4
7 6 4 3 4 2 1 3 2 2 3 1 2 2 1 2 2 3 2 2 1 2 1 5 6 6 6 4 1 2 2 1 1 2 1 2 5 8 2 2 5 2 3 2 4 5 4 3 2 4 5 4 3 4 4 5 7 6 7 8 8 8 7 6 6 5 6 5 6 5 5 5 5 6 6 5 4 4 4 4 3 4 4 4 2
3 4 3 5 3 5 2 4 3 3 4 1 2 2 2 1 2 1 2 3 2 1 4 5 7 3 3 5 3 2 3 2 1 2 2 1 3 5 8 5 3 6 3 4 2 1 6 6 4 4 3 3 5 4 4 3 5 7 5 7 8 7 7 6 6 6 6 6 7 6 6 6 5 6 6 6 5 5 5 4 4 3 3 4 3
6 4 4 3 3 2 3 4 3 2 3 2 1 2 1 1 2 1 2 3 3 0 1 2 5 6 4 3 5 5 3 2 2 2 3 5 3 5 7 8 6 4 3 4 4 5 5 4 5 6 5 6 6 7 5 5 5 5 5 6 7 9 8 7 8 9 7 8 7 6 6 5 5 5 5 5 6 5 5 4 4 3 3 2 3
3 3 2 3 3 3 2 4 2 3 2 5 4 2 2 2 3 3 1 3 3 2 3 4 6 4 2 1 3 5 3 3 3 2 4 3 6 5 5 6 6 7 4 4 5 6 3 5 5 5 4 5 6 7 5 2 2 1 2 4 7 10 9 8 9 10 9 7 6 5 5 5 6 5 5 5 6 5 5 5 4 4 4 3 2
4 3 2 4 4 4 4 3 4 3 3 2 1 3 2 3 2 3 2 3 3 2 2 1 3 6 3 1 1 3 4 5 3 4 5 4 3 4 2 3 3 7 9 5 4 6 4 5 3 4 5 6 3 2 3 7 7 4 1 0 2 1 5 7 8 10 10 9 7 6 6 7 7 8 7 6 6 6 5 5 5 5 5 4 3
5 3 3 3 3 4 4 4 4 3 3 4 5 3 3 2 3 3 3 2 1 2 2 2 2 1 2 2 1 1 1 4 7 4 4 5 5 3 3 1 4 4 5 5 4 6 5 5 5 5 5 4 5 3 4 6 4 4 2 3 3 3 6 5 4 7 11 11 9 8 8 8 9 9 8 7 6 6 6 6 6 6 6 5 5
4 4 3 2 3 3 2 2 2 2 2 3 3 4 4 3 4 4 4 4 2 1 2 2 2 1 2 2 3 1 2 3 3 3 4 3 2 3 2 4 2 5 7 7 1 3 2 3 4 4 4 3 2 3 3 3 4 5 4 3 3 5 5 5 6 3 6 10 10 8 8 10 9 9 8 8 7 7 7 7 7 7 6 6 6
4 3 2 3 3 3 2 2 2 2 2 2 2 2 3 4 3 2 1 3 4 2 1 3 1 2 2 2 2 2 0 3 2 3 4 4 6 6 6 6 10 11 7 8 6 6 4 2 3 3 3 3 3 3 3 4 4 7 3 1 2 5 5 5 5 5 5 3 8 11 8 10 9 10 10 9 8 8 7 7 7 7 7 6 7
2 4 5 5 3 3 3 2 2 2 1 1 1 3 3 1 2 2 2 0 1 3 3 3 3 2 1 3 2 3 2 4 1 1 4 2 1 3 4 6 7 6 6 4 5 6 3 2 4 2 3 2 0 3 4 2 4 3 2 1 2 4 6 5 5 5 6 5 3 7 9 11 11 11 11 10 9 8 8 8 7 7 7 7 7
4 5 5 4 4 3 4 3 3 3 2 2 2 4 1 2 1 1 2 2 2 3 4 1 2 3 2 1 1 2 3 2 1 1 3 3 3 4 8 5 3 4 5 5 5 2 4 6 5 2 3 5 3 4 6 3 1 1 2 4 7 9 10 11 10 7 6 6 7 7 6 8 12 12 11 10 9 8 8 8 8 8 8 8 7
3 4 5 5 4 4 3 2 3 3 4 4 4 3 3 4 3 2 1 1 2 2 3 4 2 3 3 2 1 3 2 4 4 2 3 3 5 7 4 4 3 1 1 3 5 1 4 4 9 6 5 4 2 2 3 5 4 6 6 8 12 12 10 9 8 7 8 7 5 5 7 9 8 9 10 10 9 9 9 9 9 9 9 8 9
5 4 4 4 4 4 2 1 3 3 3 4 4 4 4 6 5 5 4 4 3 2 4 3 4 2 5 4 3 3 4 2 1 5 4 3 3 3 5 3 3 4 6 8 8 7 5 6 9 5 10 8 5 5 5 6 10 10 13 12 11 9 7 8 8 6 4 5 5 4 4 4 6 6 9 9 9 9 10 10 11 10 10 10 10
4 4 4 4 4 3 3 3 1 2 3 4 5 4 4 5 6 6 6 6 6 5 5 4 5 3 4 3 1 1 5 2 2 2 4 4 4 5 7 7 6 7 7 7 7 7 7 7 8 8 9 10 8 5 5 6 7 8 7 11 10 10 9 8 7 5 5 3 3 2 2 1 4 7 7 7 9 8 10 12 12 12 11 10 11
6 5 5 5 4 4 4 3 2 1 3 5 4 5 6 6 6 6 6 6 7 7 6 5 5 5 3 4 3 4 2 6 3 3 3 4 5 6 6 6 7 6 5 6 6 6 7 7 8 10 9 9 10 8 7 7 7 8 8 10 10 9 9 8 9 9 11 10 10 9 8 4 2 4 2 7 10 10 9 11 12 9 8 8 11
5 5 5 5 4 4 5 4 4 6 7 5 4 5 6 6 7 7 6 7 6 7 7 6 6 5 5 4 4 2 2 6 2 3 2 2 5 6 6 5 5 4 3 5 7 6 7 7 8 9 9 9 9 9 9 9 7 6 8 11 10 10 9 9 10 10 11 10 10 9 10 9 8 8 8 3 4 8 9 8 8 10 13 13 16
5 5 6 6 5 5 5 5 5 5 5 6 6 6 6 6 6 7 8 7 6 7 7 7 5 6 6 6 6 5 6 3 4 6 5 4 3 5 5 6 7 6 3 3 4 7 8 7 8 8 9 9 9 9 9 9 9 9 13 13 12 12 11 10 11 11 11 11 12 11 11 10 11 11 11 8 5 5 4 8 12 14 13 11 14
6 5 5 5 5 5 5 5 5 5 5 5 4 5 5 6 6 6 6 7 7 7 7 8 8 5 6 5 5 5 5 5 5 3 2 4 4 6 5 5 6 6 5 4 7 7 7 8 9 9 8 8 8 8 9 9 9 12 10 12 12 11 11 11 11 11 12 12 12 13 13 13 13 13 12 10 10 10 10 7 8 9 8 7 10
6 6 5 5 4 4 4 5 5 5 5 6 6 6 6 6 6 7 7 8 7 7 7 8 7 6 6 5 6 6 6 5 5 5 4 3 5 4 6 5 6 6 6 6 6 7 7 7 8 8 8 8 8 8 8 8 7 7 11 10 12 12 11 12 12 11 11 12 12 13 14 14 14 14 14 13 13 12 11 8 7 6 5 5 6
7 6 6 6 6 6 6 6 6 6 6 6 6 6 6 6 7 7 7 6 6 7 7 8 7 7 6 6 7 6 6 5 4 3 4 3 2 5 5 5 7 6 6 6 6 6 7 7 7 7 7 7 7 7 6 7 7 6 11 9 10 11 11 11 11 11 11 11 11 12 13 13 13 13 13 13 12 11 10 10 9 8 7 6 7
7 6 7 7 7 6 6 6 6 6 6 6 6 6 7 7 7 7 6 6 7 7 7 7 7 7 7 6 6 6 7 6 5 7 5 3 4 4 5 4 4 5 6 5 6 6 6 6 6 7 7 6 6 5 6 6 5 7 7 8 7 10 10 9 10 10 10 10 10 10 10 11 11 10 11 11 11 11 11 11 10 9 9 9 8
7 7 7 7 7 7 7 6 6 6 6 6 6 6 6 6 6 6 6 5 6 6 6 6 7 7 6 6 6 6 6 6 6 5 5 4 4 2 0 2 6 5 3 4 4 6 4 6 6 6 6 6 5 4 6 7 5 3 3 5 5 6 7 9 9 10 10 9 8 9 9 10 10 10 11 12 12 12 11 11 10 10 10 11 11
8 7 7 7 6 6 6 6 6 6 6 6 6 6 6 6 6 6 6 6 6 7 6 6 6 6 5 6 6 6 6 6 6 5 4 4 4 3 3 4 2 5 4 5 4 3 5 5 5 5 5 5 4 4 4 5 4 6 4 5 5 4 5 7 9 8 9 9 9 8 8 8 9 10 11 11 11 11 11 11 10 10 10 11 11
8 7 7 7 6 6 6 5 5 5 5 5 6 6 5 5 5 5 5 5 5 5 6 6 6 6 6 6 6 6 6 5 6 5 4 4 3 3 3 3 5 4 2 5 5 3 3 2 4 5 4 5 5 4 5 5 4 7 5 3 4 5 6 6 7 9 8 9 8 8 7 7 8 8 9 10 10 10 10 10 10 10 10 9 9
8 8 8 7 6 6 5 6 5 5 5 5 4 5 5 5 5 4 3 4 4 5 4 4 4 4 5 5 5 5 4 5 5 5 4 3 1 3 3 4 3 6 5 5 4 3 2 3 3 4 4 3 3 4 3 4 3 3 2 2 4 10 9 5 6 8 8 7 7 6 7 6 7 7 7 8 9 8 9 9 9 9 9 8 8
8 9 8 8 7 7 6 6 5 5 5 4 4 4 4 4 4 4 4 3 4 4 3 2 3 3 3 5 5 4 4 3 4 4 4 4 5 4 3 3 3 3 3 3 5 5 2 3 2 3 3 2 3 2 4 3 5 4 0 3 5 10 6 5 6 6 9 7 6 5 4 4 4 5 6 6 6 7 7 7 7 7 7 7 7
9 9 9 9 8 7 7 7 6 5 5 4 4 3 4 3 3 4 4 3 4 4 4 3 2 2 3 4 3 4 3 3 2 3 3 3 3 3 3 3 3 2 3 4 5 5 3 1 1 4 4 3 2 4 5 3 2 1 3 1 1 3 4 4 6 7 8 8 7 5 2 1 2 3 3 4 5 5 6 6 6 6 6 7 6
10 9 10 8 8 8 8 8 7 6 6 5 4 4 4 3 4 2 3 2 3 4 2 2 3 2 2 1 4 3 3 4 4 3 3 1 1 3 2 1 3 3 2 3 4 4 4 1 2 2 3 2 2 3 2 3 2 4 3 3 2 2 1 5 3 6 8 8 8 4 1 4 5 4 5 5 5 5 5 5 5 5 6 6 6
9 9 9 9 9 8 8 8 8 7 7 6 5 4 5 4 4 4 3 3 3 4 3 3 4 4 2 2 2 2 1 1 2 4 3 4 4 4 3 2 3 2 2 2 2 4 4 3 1 5 3 3 4 3 1 1 3 4 4 2 4 3 2 1 5 4 9 8 8 7 4 5 6 7 6 6 6 5 6 6 6 6 6 6 5
10 8 9 9 9 8 8 8 8 8 6 6 5 5 5 5 5 5 4 3 4 4 4 4 3 4 3 3 2 2 1 0 1 2 1 2 4 3 0 3 1 2 3 2 3 2 2 1 1 6 4 3 2 1 3 3 3 4 2 1 3 5 4 6 6 5 9 10 9 8 7 8 8 8 8 8 8 7 6 6 7 6 6 6 5
10 9 8 8 8 9 7 8 8 8 7 6 6 5 5 5 5 4 5 5 5 5 4 4 3 4 5 4 3 3 2 1 1 3 1 1 4 1 3 1 2 2 1 3 2 1 2 1 2 1 4 2 2 1 2 5 8 9 9 7 6 8 8 5 5 6 7 9 8 7 9 11 11 10 10 10 10 8 7 7 7 7 6 6 4
9 8 8 8 7 8 8 8 7 7 7 7 6 6 6 6 5 4 5 5 6 6 5 6 6 5 5 5 4 4 5 4 3 2 4 1 2 2 3 4 4 2 1 2 3 3 4 3 1 2 4 2 6 6 4 2 6 7 4 4 5 7 8 8 8 7 7 4 2 4 8 10 13 13 12 12 13 12 9 8 8 9 7 6 3
9 9 8 9 8 8 8 5 6 7 7 7 6 5 6 6 7 7 6 8 7 6 5 6 6 6 5 5 4 5 6 6 5 4 5 3 2 3 4 4 6 3 2 3 4 2 2 4 4 3 3 4 3 3 4 5 6 7 8 7 8 8 7 8 8 8 7 5 3 7 9 9 9 7 10 14 14 13 10 9 11 11 9 5 3
9 10 10 10 6 4 4 11 8 7 5 3 6 5 5 5 5 7 8 6 6 7 5 4 4 4 4 5 5 5 6 6 6 5 2 3 2 2 3 3 3 4 4 4 4 5 5 5 5 4 4 4 3 4 4 5 8 8 7 7 8 8 8 7 8 9 8 5 5 5 6 9 10 13 15 14 15 11 11 11 13 10 6 4 3
7 9 9 9 9 10 9 8 7 3 2 5 6 5 4 6 5 4 6 4 6 5 5 5 3 3 3 3 4 2 5 9 9 8 8 6 2 5 5 1 2 2 2 4 4 7 8 8 6 4 5 4 4 5 5 5 7 8 8 7 7 8 8 9 8 8 7 6 6 6 7 7 9 9 9 8 5 10 11 14 10 9 7 6 5
4 5 7 9 9 6 7 4 4 3 5 4 4 5 7 3 4 6 8 3 4 5 4 4 3 1 2 3 4 11 8 7 6 6 7 8 9 7 2 1 1 2 1 1 3 2 3 5 5 6 5 4 5 6 6 6 7 7 7 7 8 9 9 9 8 6 8 7 6 8 8 8 9 9 9 8 3 8 5 8 4 6 8 6 6
5 3 2 5 1 6 9 1 4 5 6 2 5 9 8 8 3 2 5 1 5 3 1 2 3 5 5 5 5 6 8 5 5 6 6 8 8 6 7 8 7 3 4 3 3 3 3 4 5 3 5 7 7 5 6 8 6 5 7 8 8 8 8 9 10 8 6 5 7 8 9 8 8 9 8 8 8 8 7 2 11 11 11 9 3
5 3 4 5 3 2 3 4 3 6 3 3 7 7 8 8 5 3 3 1 2 1 2 2 1 1 0 2 1 4 1 2 2 7 7 9 8 8 8 8 8 9 8 5 2 3 6 5 3 4 5 5 5 6 6 5 5 6 7 8 8 8 8 9 9 9 7 8 9 10 10 8 7 8 8 8 7 6 8 2 9 5 2 1 5
3 5 4 5 7 4 2 1 6 4 5 2 7 5 5 7 7 5 4 2 1 4 3 4 5 5 3 1 3 2 4 4 1 3 7 6 7 8 9 9 8 8 7 9 8 5 3 2 2 3 5 4 5 4 5 4 4 6 7 7 7 7 7 8 9 9 9 9 9 9 9 8 8 8 8 7 8 8 8 7 6 2 5 7 8
4 3 2 1 4 3 2 2 3 5 4 4 3 1 4 6 7 4 4 2 3 3 4 3 3 3 3 3 0 4 3 4 4 4 5 6 6 6 6 5 5 6 7 8 7 8 5 2 2 4 3 2 3 4 4 3 5 5 6 7 7 8 8 9 11 11 11 9 9 8 9 8 6 7 9 8 7 8 8 0 9 10 10 10 11
5 5 6 7 7 8 11 10 6 5 4 3 4 4 4 4 6 4 2 1 1 4 3 3 3 3 3 2 2 2 1 5 7 5 5 4 4 5 5 6 5 6 5 3 3 2 2 0 1 1 2 2 3 3 4 4 5 6 6 8 9 9 10 11 11 12 11 9 9 8 9 8 7 8 9 9 8 9 9 10 7 9 10 12 12
7 7 6 6 5 6 6 7 7 7 4 3 3 3 2 3 5 4 2 2 2 3 4 3 4 4 5 4 1 3 5 6 8 12 8 1 5 4 5 4 5 5 5 4 4 7 6 5 4 4 4 4 4 4 4 5 6 6 7 7 8 8 9 9 9 8 8 7 6 7 8 9 7 9 9 8 9 9 8 9 11 10 9 10 10
7 6 6 5 5 5 6 6 7 7 5 2 3 2 1 2 3 5 1 3 4 3 3 4 5 7 7 9 4 5 5 6 8 9 8 10 2 4 4 4 3 3 4 3 4 4 4 5 4 4 3 2 1 1 0 2 3 5 6 6 7 6 7 9 9 8 8 7 7 9 9 10 7 8 10 8 8 10 10 10 9 1 7 10 13
7 6 6 5 5 5 5 6 5 6 6 5 4 2 1 1 3 4 4 2 4 3 4 4 6 6 10 16 12 5 6 6 9 10 11 8 6 4 3 4 4 3 4 3 2 2 3 2 2 3 3 4 4 5 5 5 4 3 4 6 7 7 7 7 9 8 8 9 7 9 6 7 8 8 9 9 10 8 8 9 9 11 13 9 14
6 5 5 6 5 4 4 5 5 4 6 5 3 2 4 6 5 5 4 4 4 3 2 4 4 5 6 9 14 12 8 7 10 10 12 10 6 4 2 3 4 5 4 3 3 4 5 5 5 5 6 7 6 7 7 11 10 10 7 7 6 6 7 7 8 8 8 7 7 10 8 9 9 9 10 11 11 9 8 9 9 10 10 10 10
Wind_Direction
194 196 200 190 164 204 118 200 220 242 219 251 232 245 249 216 203 229 206 216 201 232 240 204 208 205 216 196 190 190 188 209 174 202 111 142 142 147 157 169 168 175 177 159 165 180 163 161 155 152 150 141 149 146 144 141 140 136 133 129 125 120 121 115 111 104 103 97 93 91 92 90 87 82 73 74 77 71 78 82 77 70 55 54 53
220 235 234 202 167 172 182 192 219 215 198 249 233 227 253 235 199 244 22 19 14 327 302 247 217 189 217 199 175 209 166 193 201 190 137 152 143 140 163 161 168 174 159 167 163 175 173 160 160 159 155 155 159 168 151 151 144 145 132 134 126 125 124 127 122 120 111 105 100 94 98 99 95 92 92 85 77 77 72 74 76 76 69 61 59
229 214 316 266 227 194 208 216 139 237 242 314 310 284 250 320 41 23 354 11 1 306 354 340 289 205 202 231 154 201 162 202 207 191 138 154 138 150 163 161 172 167 173 182 163 171 171 166 170 165 160 156 166 155 159 156 155 150 143 134 137 133 134 133 131 130 123 117 117 115 101 96 99 99 101 93 81 81 75 81 87 85 80 75 69
228 151 194 203 246 220 228 238 68 330 331 326 6 321 18 19 28 30 322 319 336 317 328 321 298 259 211 208 161 187 180 180 217 176 182 133 141 148 154 166 168 172 176 174 156 173 183 171 177 171 168 168 161 154 152 156 160 158 150 145 141 147 143 143 145 139 137 125 122 119 113 108 102 107 95 91 96 85 93 82 78 81 90 92 82
296 261 252 250 205 180 140 152 110 311 3 17 272 351 3 50 6 354 8 287 320 334 331 316 290 275 243 150 224 166 350 189 200 220 187 133 163 144 153 165 170 165 176 171 165 144 79 189 171 182 168 172 158 172 154 141 163 166 159 154 159 162 159 159 160 157 141 144 133 130 131 124 114 104 109 99 101 103 92 94 78 78 77 83 89
271 281 303 258 234 119 245 72 79 175 347 301 52 147 50 12 74 0 322 323 296 307 302 331 280 322 301 295 84 359 234 359 345 210 211 102 109 145 137 165 162 170 178 175 167 146 165 71 177 175 171 192 168 170 159 150 151 163 171 163 171 171 172 173 182 169 160 157 154 147 145 133 142 123 122 124 107 118 107 95 99 79 76 79 78
190 204 218 240 160 258 153 93 79 88 105 33 85 13 28 26 54 197 268 291 305 327 352 276 304 307 303 327 296 176 269 252 89 314 85 113 96 135 149 81 151 172 173 172 160 155 154 353 172 159 172 188 160 179 168 164 158 161 169 178 172 177 175 184 189 184 173 175 169 165 162 154 151 154 140 135 144 123 127 118 121 126 90 84 85
187 173 173 228 161 193 121 99 193 123 103 137 58 64 19 327 279 290 268 272 259 59 282 282 253 267 269 267 299 332 279 211 308 284 229 213 150 122 225 185 152 129 75 121 166 150 168 170 150 155 169 166 153 176 190 175 162 182 172 177 178 179 179 187 194 189 189 184 185 184 178 174 166 165 164 150 154 152 139 157 137 127 137 106 87
157 170 190 193 191 142 158 127 164 170 128 113 103 155 174 210 238 191 255 299 338 142 209 248 262 238 298 332 326 319 301 359 317 307 347 250 143 143 152 192 136 115 115 77 68 245 196 173 139 144 149 175 174 179 183 173 178 178 182 174 182 180 190 193 196 210 203 197 191 188 189 182 181 178 171 166 163 166 166 165 164 144 131 149 139
166 191 175 160 138 129 131 145 120 109 117 101 283 90 67 228 262 258 239 258 253 73 95 199 303 324 291 5 357 297 324 334 336 331 310 274 194 196 148 177 151 129 118 117 182 198 174 159 165 157 171 179 180 188 188 170 181 183 172 171 180 188 192 198 195 212 211 205 200 193 196 190 185 199 181 178 179 177 181 181 168 170 167 169 158
133 153 167 142 128 134 136 116 113 169 163 182 161 126 155 236 252 249 261 263 275 203 217 187 167 258 308 2 321 305 309 329 309 339 287 344 357 329 1 40 109 125 107 184 190 181 152 174 192 185 170 192 186 187 205 84 32 242 211 190 173 181 200 208 204 205 215 210 210 208 207 202 192 205 201 197 194 189 192 192 179 191 174 200 190
149 165 167 127 148 140 132 153 148 145 151 133 124 173 177 194 236 264 236 239 251 331 356 56 93 168 187 179 20 300 9 310 312 342 338 352 355 327 357 90 79 110 134 207 190 142 168 179 198 149 193 171 120 42 109 92 57 50 160 275 250 248 197 223 233 212 211 209 211 212 202 201 198 200 206 209 204 201 199 199 197 198 188 196 210
133 134 111 108 109 116 136 144 148 157 157 140 180 153 166 170 204 245 238 271 272 274 288 264 103 142 117 53 257 267 7 343 346 4 349 322 327 346 349 95 140 162 143 199 180 142 167 182 178 178 191 168 173 139 69 55 57 55 139 172 150 246 244 238 267 217 203 212 211 215 205 208 204 202 205 211 215 209 208 203 207 204 203 191 207
104 102 112 106 100 97 90 95 107 123 122 126 134 147 169 171 196 202 191 193 221 243 292 289 212 243 241 183 184 321 43 15 335 348 348 308 328 347 340 301 251 166 146 159 139 133 108 142 157 159 174 150 138 173 165 169 184 141 117 142 160 219 244 246 241 212 214 218 215 225 210 210 207 206 207 210 217 219 215 212 204 208 209 205 201
116 120 135 103 89 94 113 124 102 118 141 141 141 171 165 183 201 197 214 209 180 189 151 295 291 57 322 265 188 199 18 110 291 319 310 335 13 10 348 349 2 10 342 74 75 46 56 7 64 78 111 146 166 166 174 185 183 145 136 128 35 299 264 250 245 237 212 215 221 226 208 211 208 207 211 214 217 224 228 222 217 210 219 218 213
100 96 72 68 62 67 67 68 85 62 53 71 142 160 156 178 196 235 244 55 353 177 192 183 304 46 254 247 360 291 186 108 150 7 356 10 350 26 11 15 9 35 68 87 97 118 132 106 85 110 121 110 205 192 172 147 53 42 40 172 266 308 317 304 280 273 269 239 238 235 219 210 209 211 216 222 221 225 225 225 227 218 224 225 226
75 68 80 80 72 64 62 56 47 43 16 46 48 14 349 169 133 299 311 315 234 107 136 126 130 183 63 292 166 212 40 131 179 73 340 349 26 49 29 334 343 24 39 52 85 102 159 129 91 56 48 46 56 80 71 49 84 95 119 83 37 18 10 4 356 341 310 269 253 251 243 219 212 212 217 218 225 221 225 228 223 223 226 226 229
93 83 86 78 81 79 76 74 69 47 21 19 33 51 32 33 26 12 63 62 6 234 109 135 172 115 169 115 271 8 169 137 222 107 329 13 39 56 86 44 31 8 176 90 79 92 102 122 133 120 97 49 10 71 129 125 97 55 33 37 39 36 34 26 7 338 325 334 339 324 280 253 238 224 214 219 220 217 221 232 233 227 228 230 228
65 71 67 70 63 69 70 78 93 96 75 40 42 37 46 33 39 37 29 26 18 21 41 75 65 339 121 152 205 150 156 168 161 136 142 76 31 33 76 125 44 57 61 54 54 58 45 65 99 119 114 111 99 67 39 52 76 76 55 51 51 51 41 39 21 355 348 342 315 291 320 330 306 265 242 231 225 218 220 228 232 232 229 231 229
93 94 95 93 89 73 52 27 7 90 114 80 58 38 41 49 38 36 34 28 29 24 32 34 84 255 44 41 134 196 118 123 190 260 147 138 114 113 95 73 72 56 55 59 62 62 62 46 60 75 79 95 110 90 61 65 58 54 51 52 53 53 56 54 43 19 334 12 16 357 328 295 259 277 294 279 251 236 231 228 233 233 238 235 240
85 83 88 91 79 59 49 57 31 110 111 104 87 64 54 44 39 43 33 41 32 31 47 35 41 30 34 69 30 18 92 140 207 215 95 132 128 133 114 94 70 59 67 79 77 75 77 75 64 68 76 79 76 85 84 72 64 59 43 48 55 54 48 41 43 42 28 28 49 66 62 66 265 286 255 282 296 285 251 245 245 254 255 272 281
82 77 85 82 81 91 91 79 56 46 57 78 91 70 53 59 53 45 44 52 46 42 43 45 41 33 34 24 36 51 82 82 352 346 49 83 140 136 139 128 92 62 55 83 85 79 81 82 84 78 76 81 81 80 74 62 54 58 49 45 48 47 45 40 37 38 43 33 43 48 54 57 54 56 56 30 313 313 296 260 271 261 256 245 239
104 85 78 76 68 76 85 84 63 61 68 65 52 58 74 71 69 65 54 48 48 51 49 42 42 38 21 22 11 31 10 45 115 123 150 163 191 114 123 114 116 112 103 100 112 114 104 92 79 78 81 81 88 85 83 81 76 68 57 50 46 46 43 44 44 40 37 34 34 36 47 51 57 60 57 52 39 12 347 301 273 263 259 274 289
108 99 85 84 89 83 80 77 76 74 69 65 78 89 73 63 54 49 54 47 43 48 43 40 26 51 39 21 34 30 34 17 44 58 103 90 117 116 110 124 114 101 119 124 85 78 71 80 88 89 81 82 85 90 98 92 87 82 69 55 53 44 47 47 45 45 42 40 34 34 34 39 38 39 48 50 38 40 45 30 20 357 351 309 286
114 112 107 110 103 96 94 87 82 71 76 79 76 66 68 65 64 67 51 55 54 46 51 42 39 28 29 32 28 34 43 38 33 60 54 61 93 116 110 111 119 125 128 128 96 74 72 74 72 70 85 83 79 83 82 77 82 103 90 65 50 52 46 47 48 46 45 41 35 32 30 32 36 37 38 40 38 37 42 45 37 30 15 358 336
126 120 119 104 93 88 83 89 90 87 75 66 54 58 70 80 72 61 67 63 57 61 57 55 48 40 30 43 28 37 38 31 26 104 120 145 127 88 95 122 149 129 135 113 105 101 88 80 76 74 69 70 82 84 78 92 104 97 93 90 61 52 51 51 50 50 48 43 39 34 30 30 31 32 34 38 39 38 40 40 34 33 32 19 4
122 115 114 113 110 103 102 98 94 89 94 93 83 68 57 68 67 63 67 61 62 63 60 55 53 46 41 35 51 50 20 26 33 3 71 26 101 114 129 119 79 73 78 79 95 86 97 73 75 82 78 82 74 73 95 97 95 140 198 99 89 62 61 56 55 54 51 50 46 40 38 33 29 24 27 29 31 34 37 38 35 33 31 25 15
123 126 124 121 118 120 117 109 108 105 101 95 92 83 76 76 72 71 74 74 69 66 74 68 55 53 49 49 58 50 37 24 33 26 38 52 84 75 59 137 128 117 112 82 66 75 82 97 80 67 87 87 89 99 150 132 112 333 244 92 93 85 72 74 68 62 54 48 45 44 37 34 29 25 24 25 24 26 25 27 26 25 28 23 16
131 131 129 131 129 117 112 109 106 102 94 96 98 98 90 80 81 74 71 68 69 67 61 61 57 54 54 51 59 53 51 47 35 43 29 358 53 22 350 9 30 128 155 125 98 98 54 33 84 91 85 82 84 85 58 55 57 310 120 102 93 97 99 97 90 79 66 53 46 41 36 29 28 22 22 20 18 18 16 16 16 14 17 18 13
142 137 139 134 133 129 119 116 113 116 114 104 98 101 104 92 88 85 78 79 79 74 68 63 56 55 43 50 49 58 40 46 57 47 48 31 27 32 26 58 352 330 142 113 102 68 100 32 50 89 93 110 122 105 104 93 29 321 67 95 119 114 136 115 108 102 93 76 60 43 39 33 25 22 18 15 12 8 9 7 10 9 7 10 10
148 149 146 146 143 142 134 126 124 117 116 113 119 111 103 110 106 104 105 82 79 80 64 61 68 60 56 52 58 59 51 48 48 51 38 29 80 101 45 28 43 3 64 114 138 79 19 87 58 41 50 49 79 94 84 75 72 310 95 72 104 133 155 132 133 120 106 102 83 58 45 42 28 19 11 6 5 1 1 358 1 1 359 1 2
151 156 156 151 154 148 152 140 139 138 134 144 132 126 129 127 134 111 106 127 112 108 108 96 90 97 94 65 41 38 17 60 62 49 64 39 21 46 67 82 66 25 357 64 88 109 60 81 94 121 118 63 24 86 85 111 134 264 2 124 125 148 197 145 164 142 123 111 105 78 62 43 25 16 8 354 346 346 347 346 349 348 349 353 355
155 163 161 161 159 159 155 159 154 153 150 146 145 143 135 135 107 114 140 135 129 94 95 112 103 89 59 75 84 65 29 28 46 62 34 56 47 38 50 74 86 57 60 83 103 110 100 79 95 54 30 287 118 30 54 44 28 156 206 76 178 225 208 164 153 154 141 132 122 118 99 323 314 312 330 332 329 327 331 332 332 335 337 343 344
167 165 168 166 163 167 160 164 162 157 163 154 161 166 139 133 126 152 148 163 102 107 133 107 87 48 52 1 68 33 13 15 336 306 110 277 198 159 118 78 84 70 40 90 127 122 109 147 150 140 125 348 318 93 81 19 51 335 313 13 196 260 35 339 147 156 164 148 139 140 196 268 279 271 275 288 297 306 307 307 305 317 323 332 335
168 177 166 173 168 169 167 163 170 165 170 156 169 173 153 162 164 161 180 156 147 153 171 164 174 126 145 124 162 111 352 16 346 12 5 325 325 44 51 46 74 40 48 74 285 93 210 109 86 208 124 77 356 7 62 121 6 333 308 42 333 331 321 269 324 126 174 160 159 156 212 249 262 267 266 270 279 286 292 294 298 304 313 316 325
171 178 170 177 175 174 174 173 170 177 169 164 175 185 175 186 178 172 191 180 184 193 189 190 167 149 168 174 157 161 126 124 295 12 326 22 312 33 23 102 64 48 39 339 338 339 328 241 153 337 97 328 193 202 2 299 197 237 214 311 330 331 343 330 325 321 167 176 161 162 203 231 246 250 248 259 271 265 266 280 285 291 294 301 313
168 178 171 183 178 187 180 186 175 176 182 171 185 189 187 194 202 196 202 203 206 208 208 212 192 182 174 196 202 180 152 224 159 259 151 49 302 58 281 106 184 94 314 309 318 290 279 231 190 163 348 276 339 346 276 1 346 338 334 336 353 343 339 335 313 316 157 164 153 187 205 226 242 240 240 247 250 248 247 256 270 271 273 282 298
172 173 178 183 186 192 190 197 184 177 181 192 194 203 194 194 213 215 221 218 218 219 215 221 214 207 206 211 206 194 194 208 227 245 334 157 287 300 290 316 323 134 330 333 310 327 318 322 344 316 168 317 338 342 348 42 332 309 306 321 332 331 333 327 325 322 316 289 252 193 212 234 235 236 243 234 240 244 238 240 245 251 258 267 266
175 180 182 193 190 206 188 210 214 180 191 192 205 205 215 205 215 225 227 233 224 233 227 209 215 212 215 220 221 213 207 210 214 198 221 221 2 344 338 315 309 310 158 265 291 288 283 305 306 288 298 159 200 318 314 327 308 309 323 352 327 327 329 325 321 317 302 289 215 222 258 284 298 277 228 224 235 232 220 229 239 244 249 246 243
185 187 188 204 181 252 160 212 204 193 182 187 221 201 220 235 235 230 229 235 249 223 218 222 208 215 213 223 225 224 222 213 221 194 163 155 190 252 238 267 314 319 291 287 282 287 288 288 288 306 306 314 297 211 293 329 324 321 349 341 318 324 324 327 314 313 310 302 301 310 246 233 238 239 246 254 249 234 214 230 240 237 219 170 200
195 201 201 206 175 202 234 207 201 159 221 84 21 349 309 292 267 268 267 275 246 262 229 213 213 218 219 200 224 238 52 56 63 70 49 33 248 234 235 288 210 277 339 297 337 18 351 322 307 305 290 263 277 313 339 333 327 323 319 314 312 314 322 316 315 310 318 319 310 307 303 317 309 308 309 298 261 197 209 227 239 219 173 171 221
161 69 41 15 349 303 232 173 130 136 84 65 45 27 27 25 29 360 300 253 301 263 211 217 151 254 208 207 133 98 103 95 87 91 91 69 51 27 9 117 158 232 279 359 19 356 273 286 296 310 306 287 331 335 314 308 308 312 313 318 314 319 315 310 305 313 323 325 326 307 307 313 308 304 295 289 277 167 239 222 214 138 159 187 212
87 103 83 102 112 293 288 292 64 80 77 60 32 35 1 23 5 206 259 225 221 215 59 285 136 171 206 215 123 118 111 133 132 126 125 97 87 77 55 45 27 341 226 213 212 235 278 298 302 313 301 316 305 312 299 293 307 338 322 314 312 315 317 317 312 315 314 350 314 311 305 309 305 299 303 301 300 294 292 329 119 151 175 196 239
109 122 161 162 172 227 284 268 142 56 81 27 53 36 6 339 342 304 281 271 36 359 19 38 6 83 20 19 93 140 153 61 187 141 90 76 90 85 71 68 59 49 41 30 293 260 265 266 303 321 328 298 329 313 321 10 358 325 308 304 303 311 313 306 303 301 317 333 319 307 298 301 300 298 290 285 290 291 293 130 177 211 226 66 276
134 168 195 181 207 212 254 214 100 158 95 53 74 42 339 327 324 335 279 64 347 50 36 28 8 2 356 140 141 175 92 85 269 164 120 106 88 94 107 92 71 74 65 56 47 40 33 12 302 292 289 318 311 334 40 349 336 296 305 303 314 314 307 297 295 305 309 320 302 288 291 302 297 287 290 300 302 298 289 245 219 152 183 222 237
160 170 162 319 72 97 12 67 146 110 111 83 101 148 278 302 320 317 309 53 43 67 56 38 21 27 8 342 322 143 152 176 201 162 121 122 137 146 154 163 136 104 94 100 92 66 41 14 324 299 351 359 330 350 351 332 308 313 314 310 314 308 301 295 301 294 289 287 277 285 286 287 293 304 297 298 302 302 291 315 161 199 202 215 225
149 154 157 191 168 163 174 165 142 113 94 89 179 204 236 269 304 321 284 41 112 89 77 56 45 45 18 20 328 116 130 52 34 30 118 124 158 165 168 152 160 175 153 128 75 65 92 136 317 304 328 5 3 358 349 335 326 319 313 305 303 293 289 285 279 267 266 259 257 260 278 296 303 297 298 305 307 302 299 294 206 198 213 215 221
151 155 135 131 146 130 108 115 119 111 110 141 157 179 238 275 327 274 212 183 116 102 82 60 65 48 30 10 43 55 65 67 30 35 13 126 154 155 154 158 142 95 63 54 34 30 29 20 28 26 30 47 23 9 4 338 318 314 312 300 287 278 274 277 283 295 296 294 284 281 282 287 299 300 301 304 300 293 305 306 311 278 230 216 223
142 139 139 139 133 134 130 119 117 114 113 112 109 121 275 324 296 262 207 211 125 104 96 98 72 51 27 353 29 82 78 72 19 26 14 356 290 152 164 163 171 160 131 115 69 47 48 69 84 90 87 126 159 156 334 0 319 327 311 299 278 292 299 296 297 298 296 319 319 299 292 293 305 304 301 302 309 314 302 296 291 262 159 212 224
158 151 157 154 140 134 138 132 125 126 110 104 114 111 274 321 304 298 254 138 115 124 104 83 76 69 40 26 16 89 92 68 14 27 7 347 288 165 168 169 201 219 134 132 167 155 154 219 236 249 247 227 231 242 239 233 222 258 290 281 302 308 291 285 292 303 307 302 316 358 315 293 305 302 309 311 307 295 303 311 314 308 303 261 234
147 170 167 156 152 132 122 102 45 116 124 120 117 36 357 357 340 288 278 140 148 186 158 112 101 89 68 48 39 41 57 45 36 26 14 359 308 178 217 208 241 238 175 150 198 215 199 214 218 215 232 225 229 231 223 207 212 215 234 260 271 272 285 297 295 299 297 293 30 12 317 308 311 312 314 311 302 306 305 298 307 310 300 302 305